Location: Shell Point
(30.0571°N, 84.2896°W)
Time: 09:36:46
(UTC-05:00)

Daily predictions for brighter satellites

Satellite Brightness Start Highest point End
(mag) Time Altitude Azimuth Time Altitude Azimuth Time Altitude Azimuth
Meteor 1-13 Rocket 4.4 17:54:02 10° S 17:59:33 56° E 18:05:12 10° NNE
Cosmos 1975 2.8 17:55:44 10° N 17:59:45 65° E 18:03:43 10° SSE
Meteor 2-4 Rocket 4.5 17:55:41 10° SSE 18:00:12 28° E 18:04:42 10° NNE
Cosmos 1371 Rocket 4.4 17:55:30 10° S 18:00:37 48° ESE 18:05:45 10° NNE
Okean 1-7 Rocket 4.0 17:56:27 10° SSE 18:00:42 42° E 18:04:56 10° NNE
Cosmos 1812 4.4 17:57:15 10° SSW 18:00:48 36° W 18:04:23 10° NNW
CZ-4 R/B 1.4 18:00:37 10° SSE 18:04:47 82° ENE 18:08:55 10° N
MOS 1 4.3 17:59:38 10° SSE 18:05:14 67° ENE 18:10:50 10° N
SPOT 3 Rocket 3.5 18:04:00 10° SSE 18:09:09 70° ENE 18:14:18 10° N
MSX 4.1 18:04:10 10° SE 18:09:35 46° ENE 18:15:02 10° N
AQUARIUS 4.1 18:10:10 10° SSE 18:14:39 80° ENE 18:19:09 10° N
COSMOS 2487 2.4 18:11:46 10° NNW 18:15:21 78° ENE 18:18:54 10° SSE
Cosmos 1340 4.4 18:15:14 10° SE 18:17:21 15° E 18:18:57 12° ENE
Meteor 2-21 4.4 18:14:02 10° N 18:20:11 72° E 18:26:14 10° SSE
Cosmos 921 Rocket 4.4 18:30:07 10° SW 18:34:04 38° WNW 18:38:07 10° N
COSMO-SKYMED 1 2.5 18:30:49 10° NNE 18:35:09 76° ESE 18:39:28 10° S
Cosmos 1025 Rocket 3.0 18:31:16 10° S 18:35:36 71° E 18:39:58 10° N
Meteor 2-14 Rocket 4.4 18:31:07 10° N 18:37:16 73° E 18:43:21 10° SSE
IDEFIX/ARIANE 42P 3.4 18:35:28 10° S 18:40:32 55° W 18:45:38 10° NNW
Abrixas 3.3 18:38:01 10° NNW 18:40:42 31° NE 18:41:15 28° ENE
Cosmos 1666 3.2 18:37:59 10° NNE 18:41:36 37° E 18:45:12 10° SSE
Cosmos 1821 Rocket 3.9 18:44:08 10° N 18:50:12 69° E 18:56:17 10° SSE
YAOGAN 1 4.2 18:48:44 10° SSW 18:52:43 36° W 18:56:44 10° NNW
Cosmos 1833 Rocket 2.6 18:48:26 10° NNW 18:54:05 87° ENE 18:59:42 10° SSE
Timation 2 Rocket 4.5 18:50:05 10° NNW 18:56:56 72° WSW 19:03:44 10° S
Orbus 7S? 2.4 18:54:17 10° SSW 18:57:25 73° SE 18:57:48 58° ENE
Cosmos 1605 Rocket 4.2 18:55:04 10° N 19:01:00 44° E 19:06:48 10° SSE
Cosmos 2058 Rocket 3.7 19:02:41 34° E 19:02:41 34° E 19:06:17 10° SSE
Cosmos 2082 Rocket 2.7 18:57:52 10° NNW 19:03:29 64° WSW 19:09:05 10° S
ATLAS 5 CENTAUR R/B 4.4 18:57:10 10° SW 19:04:14 46° SSE 19:27:46 21° E
ATLAS 5 CENTAUR R/B 4.4 18:57:10 10° SW 19:04:14 46° SSE 19:27:44 21° E
ATLAS 5 CENTAUR R/B 4.4 18:57:09 10° SW 19:04:15 46° SSE 19:27:47 21° E
ATLAS 5 CENTAUR R/B 4.4 18:57:09 10° SW 19:04:15 46° SSE 19:27:42 21° E
ATLAS 5 CENTAUR R/B 4.4 18:57:09 10° SW 19:04:15 46° SSE 19:27:48 21° E
ATLAS 5 CENTAUR R/B 4.4 18:57:10 10° SW 19:04:15 46° SSE 19:27:47 21° E
ATLAS 5 CENTAUR R/B 4.4 18:57:09 10° SW 19:04:15 46° SSE 19:27:46 21° E
Cosmos 1743 4.0 19:01:59 10° NNW 19:05:38 42° W 19:09:15 10° SSW
Meteor 1-28 Rocket 3.5 19:06:27 14° N 19:09:37 66° WNW 19:13:20 10° SSW
Cosmos 1484 Rocket 4.2 19:13:35 10° SSW 19:17:05 38° W 19:20:34 10° NNW
Cosmos 1420 Rocket 4.3 19:16:18 10° S 19:21:17 45° ESE 19:21:17 45° ESE
Delta 2 Rocket 3.9 19:18:49 10° WNW 19:21:53 40° NNW 19:21:53 40° NNW
NOSS 3-4 (A) 3.8 19:15:47 10° NNW 19:22:57 68° ENE 19:30:29 10° SE
NOSS 3-4 (C) 3.8 19:15:54 10° NNW 19:23:03 68° ENE 19:30:34 10° SE
Cosmos 407 Rocket 3.3 19:22:30 10° N 19:27:38 67° ENE 19:32:46 10° SSE
Cosmos 1727 Rocket 3.9 19:26:37 10° S 19:32:51 87° W 19:38:31 13° N
Cosmos 2369 Rocket 2.1 19:29:12 10° SSW 19:34:50 84° WNW 19:36:50 43° NNE
NOAA 12 4.2 19:32:20 10° S 19:37:36 74° WSW 19:42:52 10° NNW
FALCON 9 R/B 3.0 19:27:31 10° W 19:47:36 67° N 19:49:07 55° NE
OAO 2 Rocket 3.8 19:49:35 10° WSW 19:53:48 58° SW 19:53:48 58° SW
ATLAS 3B CENTAUR R/B 3.2 19:40:10 10° W 19:58:27 72° SSW 20:00:27 54° SE
Cosmos 1943 Rocket 3.1 19:57:45 10° SSW 20:01:06 37° S 20:01:06 37° S
